This is the latest recevied weather packets stored in our database for station/object SR8WXL-13. If no packets are shown the sender has not sent any weather packets the latest 10 day(s).
| Time | Temp. | Humidity | Pressure | Rain* | Wind** | Luminosity | Snow |
|---|---|---|---|---|---|---|---|
| 1787770230 | 12.22° C | 93% | 1035.4 hPa | 0 mm | - | - | - |
| 1787769353 | 12.22° C | 92% | 1035.5 hPa | 0 mm | - | - | - |
| 1787768505 | 12.78° C | 90% | 1035.5 hPa | 0 mm | - | - | - |
| 1787767748 | 12.78° C | 88% | 1035.4 hPa | 0 mm | - | - | - |
| 1787766946 | 13.89° C | 83% | 1035.5 hPa | 0 mm | - | - | - |
| 1787766185 | 15° C | 81% | 1035.3 hPa | 0 mm | - | - | - |
| 1787765317 | 16.11° C | 78% | 1035.2 hPa | 0 mm | - | - | - |
| 1787764535 | 17.22° C | 75% | 1035.1 hPa | 0 mm | - | - | - |
| 1787763685 | 17.78° C | 71% | 1035 hPa | 0 mm | - | - | - |
| 1787762848 | 17.78° C | 68% | 1035.1 hPa | 0 mm | - | - | - |
| 1787761998 | 18.89° C | 67% | 1034.9 hPa | 0 mm | - | - | - |
| 1787761184 | 18.89° C | 67% | 1034.9 hPa | 0 mm | - | - | - |
| 1787760315 | 20° C | 64% | 1035.1 hPa | 0 mm | - | - | - |
| 1787759550 | 20° C | 64% | 1034.5 hPa | 0 mm | - | - | - |
| 1787758814 | 20° C | 64% | 1034.8 hPa | 0 mm | - | - | - |
| 1787757961 | 20° C | 63% | 1034.9 hPa | 0 mm | - | - | - |
| 1787757116 | 20° C | 64% | 1035 hPa | 0 mm | - | - | - |
| 1787756261 | 20° C | 64% | 1034.9 hPa | 0 mm | - | - | - |
| 1787755406 | 20° C | 65% | 1035 hPa | 0 mm | - | - | - |
| 1787754600 | 21.11° C | 66% | 1034.9 hPa | 0 mm | - | - | - |
| 1787753724 | 21.11° C | 68% | 1034.8 hPa | 0 mm | - | - | - |
| 1787753001 | 21.11° C | 65% | 1034.9 hPa | 0 mm | - | - | - |
| 1787752187 | 21.11° C | 66% | 1034.8 hPa | 0 mm | - | - | - |
| 1787751437 | 21.11° C | 67% | 1034.8 hPa | 0 mm | - | - | - |
| 1787750664 | 21.11° C | 67% | 1034.8 hPa | 0 mm | - | - | - |
* Rain latest hour (hover to see other rain measurements)
** Current wind speed in m/s (hover to see current wind gust speed)